Showing default

COSMOS 220, 3229

Orbit data source: Space-Track

COSMOS 220, 3229 is a payload satellite owned by OKB-10 (CIS) in LEO that was launched on Tue, 07 May 1968 UTC via a KOSMOS 11K65M launch vehicle from the Plesetsk Missile And Space Complex (PKMTR). Payload-class satellites include a variety of spacecraft equipped with specific instruments for various scientific and technological missions. These include communications satellites like Starlink; space stations such as the ISS; scientific satellites like the Hubble; Earth observation satellites from companies like Planet Labs, Umbra, and HawkEye 360; GPS; miniature CubeSats for education and research; and military/defense satellites.

Loading next visibility...
Identifier
3229, 1968-040A
Orbit
LEO
Country
Flag of CISCIS
Related business
Manufacturer
OKB-10
Mission
Spacecraft
Bus & Motor
KAUR-1 11F617, Unknown motor
Mass
775 kg wet, 775 kg dry
Launch date (UTC)
1968-05-07 (57 years ago)
Launch vehicle
KOSMOS 11K65M
Launch site
Plesetsk Missile And Space Complex (PKMTR)
Object type
Payload
Rocket body
Debris
Shape & HBR
Unknown
Radar Cross Section
Large (>1 m²)

Expand to show TLE details & history
Last TLE update: 5 hours ago

TLE from 5 hours ago
0 COSMOS 220
1 03229U 68040A   25293.01066862  .00001814  00000-0  24009-3 0  9996
2 03229  74.0241 294.9361 0035734 260.8946  98.8187 14.80315658 54840
Epoch: 2025-10-20T00:15Z
TLE epoch observation values (Epoch: 2025-10-20T00:15:21.768Z)
Latitude
0.00001°
Longitude
-97.62371°
Altitude
634.918 km
Speed
7.539 km/s
True Right ascension
19h 39m 44s
True Declination
0° 00' 00"
Sunlit
Object was in daylight at epoch
Visualization orbit readout
Latitude
Unknown
Longitude
Unknown
Altitude
Unknown
Speed
Unknown
Apparent Right ascension
Unknown
Apparent Declination
Unknown
Sunlit
N/A
Visualization observer readout
Local Sidereal Time
00:34:44
Azimuth
Unknown
Elevation
Unknown
Doppler factor
Unknown
Orbital elements
Apogee altitude
650.932 km
Perigee altitude
600.876 km
Semi-major axis
7,004.041 km
Eccentricity
0.00357
Inclination
74.0241°
RAAN
294.9361°
Arg. of periapsis
260.8946°
True anomaly
99.22306°
Mean anomaly
98.8187°
Eccentric anomaly
99.02091°
Mean motion
3.70271 °/min
Orbital period
97.23 mins
BSTAR
0.00024009
Loading maneuver chart data...
Computing Atmospheric mass density...
Loading historical data...
Loading historical data...
Loading historical data...
Loading historical data...
Loading historical data...
Loading historical data...
Loading historical data...
Other satellites on launch #40 in the year 1968 (1968-05-07 UTC)

Documentation

Showing up to 5 results
|